Location: Newark
(42.8481°N, 0.4872°E)
Time: 00:56:59
(UTC+00:00)

Vanguard 2 - All Passes

Search period start: 27 October 2020 00:00
Search period end: 06 November 2020 00:00
Orbit: 554 x 2937 km, 32.9° (Epoch: 26 October)

Date Brightness Start Highest point End Pass type
(mag) Time Alt. Az. Time Alt. Az. Time Alt. Az.
27 Oct - 02:06:53 10° W 02:20:43 30° SW 02:31:53 10° SSE visible
27 Oct - 17:45:40 10° S 17:55:06 26° SE 18:07:21 10° E visible
27 Oct - 19:51:23 10° SW 20:04:41 51° SSE 20:21:28 10° E visible
27 Oct - 22:00:27 10° WSW 22:16:21 60° S 22:33:13 10° ESE visible
28 Oct - 00:11:39 10° W 00:28:07 48° SSW 00:42:37 10° SE visible
28 Oct - 02:25:45 10° W 02:37:55 24° SW 02:48:05 10° S visible
28 Oct - 18:02:10 10° SSW 18:12:20 32° SE 18:26:01 10° E visible
28 Oct - 20:08:50 10° WSW 20:22:23 55° SSE 20:39:30 10° E visible
28 Oct - 22:18:17 10° W 22:34:13 59° S 22:50:58 10° ESE visible
29 Oct - 00:29:48 10° W 00:45:42 42° SSW 00:59:46 10° SE visible
29 Oct - 02:45:18 10° W 02:55:03 18° SW 03:03:33 10° S visible
29 Oct - 16:17:12 10° SSE 16:21:44 13° SE 16:27:01 10° ESE daylight
29 Oct - 18:19:03 10° SSW 18:29:41 39° SSE 18:44:25 10° E visible
29 Oct - 20:26:25 10° WSW 20:40:11 58° S 20:57:30 10° E visible
29 Oct - 22:36:11 10° W 22:52:04 56° SSW 23:08:36 10° ESE visible
30 Oct - 00:48:06 10° W 01:03:11 36° SSW 01:16:38 10° SSE night (unlit)
30 Oct - 03:06:30 10° WSW 03:12:07 12° SW 03:17:20 10° SSW visible
30 Oct - 16:32:07 10° S 16:38:45 19° SE 16:47:14 10° E daylight
30 Oct - 18:36:11 10° SW 18:47:10 45° SSE 19:02:38 10° E visible
30 Oct - 20:44:06 10° WSW 20:58:01 59° S 21:15:24 10° ESE visible
30 Oct - 22:54:08 10° W 23:09:51 52° SSW 23:26:04 10° SE visible
31 Oct - 01:06:39 10° W 01:20:34 30° SW 01:33:08 10° SSE night (unlit)
31 Oct - 16:48:10 10° S 16:55:52 25° SE 17:06:22 10° E daylight
31 Oct - 18:53:31 10° SW 19:04:45 50° SSE 19:20:46 10° E visible
31 Oct - 21:01:52 10° WSW 21:15:53 59° S 21:33:15 10° ESE visible
31 Oct - 23:12:10 10° W 23:27:34 46° SSW 23:43:22 10° SE visible
01 Nov - 01:25:35 10° W 01:37:51 24° SW 01:49:08 10° S night (unlit)
01 Nov - 17:04:46 10° SSW 17:13:05 31° SE 17:25:01 10° E visible
01 Nov - 19:11:00 10° WSW 19:22:26 54° SSE 19:38:49 10° E visible
01 Nov - 21:19:41 10° W 21:33:44 57° S 21:50:59 10° ESE visible
01 Nov - 23:30:19 10° W 23:45:11 41° SSW 00:00:25 10° SE visible
02 Nov - 01:45:18 10° W 01:55:05 18° SW 02:04:17 10° S night (unlit)
02 Nov - 15:20:51 10° SE 15:23:05 11° SE 15:25:30 10° ESE daylight
02 Nov - 17:21:44 10° SSW 17:30:25 37° SSE 17:43:22 10° E visible
02 Nov - 19:28:36 10° WSW 19:40:12 56° S 19:56:49 10° E visible
02 Nov - 21:37:33 10° W 21:51:35 53° SSW 22:08:35 10° ESE visible
02 Nov - 23:48:38 10° W 00:02:44 34° SSW 00:17:08 10° SSE visible
03 Nov - 02:07:02 10° WSW 02:12:16 12° SW 02:17:21 10° SSW night (unlit)
03 Nov - 15:35:12 10° S 15:40:06 16° SE 15:46:19 10° ESE daylight
03 Nov - 17:38:55 10° SW 17:47:53 43° SSE 18:01:36 10° E visible
03 Nov - 19:46:17 10° WSW 19:58:00 57° S 20:14:44 10° ESE visible
03 Nov - 21:55:30 10° W 22:09:22 49° SSW 22:26:01 10° SE visible
04 Nov - 00:07:14 10° W 00:20:13 28° SW 00:33:27 10° SSE visible
04 Nov - 15:51:15 10° S 15:57:14 22° SE 16:05:28 10° E daylight
04 Nov - 17:56:18 10° SW 18:05:28 47° SSE 18:19:43 10° E visible
04 Nov - 20:04:02 10° WSW 20:15:51 56° S 20:32:34 10° ESE visible
04 Nov - 22:13:31 10° W 22:27:07 43° SSW 22:43:13 10° SE visible
05 Nov - 00:26:20 10° W 00:37:38 22° SW 00:49:08 10° S night (unlit)
05 Nov - 16:07:55 10° SSW 16:14:28 28° SE 16:24:05 10° E daylight
05 Nov - 18:13:48 10° WSW 18:23:08 51° SSE 18:37:45 10° E visible
05 Nov - 20:21:50 10° W 20:33:42 53° S 20:50:17 10° ESE visible
05 Nov - 22:31:41 10° W 22:44:48 37° SSW 23:00:08 10° SSE visible
